#timestamp,LO_Frequency,Hit 
1501819215.3,286046994.3,N
1501819235.1,286046994.6,N
1501819255.9,286046996.3,N
1501819275.7,286046995.9,N
1501819295.5,286046993.6,N
1501819315.3,286046994.5,N
1501819335.2,286046995.9,N
1501819355.0,286046997.2,N
1501819355.9,286046997.2,N
1501819375.7,286046996.7,N
1501819395.6,286046996.9,N
1501819415.4,286046994.9,N
1501819435.2,286046997.0,N
1501819455.1,286046997.4,N
1501819456.0,286046997.4,N
1501819475.8,286046996.8,N
1501819495.6,286046997.1,N
1501819515.5,286046998.7,N
1501819535.3,286046998.7,N
1501819555.1,286047001.2,N
1501819575.9,286047002.2,N
1501819595.7,286047002.8,N
1501819615.5,286046999.9,N
1501819635.3,286047000.7,N
1501819655.2,286047002.7,N
1501819675.0,286047002.7,N
1501819675.9,286047002.7,N
1501819695.7,286046999.8,N
1501819715.6,286047002.7,N
1501819735.4,286047000.4,N
1501819755.2,286047000.4,N
1501819775.1,286046998.7,N
1501819776.0,286046998.7,N
1501819795.8,286046996.6,N
1501819815.6,286046996.5,N
1501819835.5,286047000.4,N
1501819855.3,286047000.2,N
1501819875.1,286047000.6,N
1501819895.8,286046997.1,N
1501819915.7,286046996.7,N
1501819935.5,286046995.3,N
1501819955.3,286046996.8,N
1501819975.2,286046998.9,N
1501819995.9,286046998.5,N
1501820015.7,286047000.8,N
1501820035.6,286046998.8,N
1501820055.4,286047000.6,N
1501820075.2,286046999.3,N
1501820095.1,286047000.7,N
1501820096.0,286047000.7,N
1501820115.8,286046999.5,N
1501820135.6,286046998.8,N
1501820155.4,286046998.3,N
1501820175.3,286046999.5,N
1501820195.1,286046998.3,N
1501820215.8,286046998.1,N
1501820235.7,286047000.5,N
1501820255.5,286047002.2,N
1501820275.3,286046999.9,N
1501820295.2,286046999.2,N
1501820315.9,286046998.8,N
1501820335.7,286046997.1,N
1501820355.6,286046997.8,N
1501820375.4,286047000.0,N
1501820395.2,286047001.1,N
1501820415.0,286047001.2,N
1501820415.9,286047001.2,N
1501820435.8,286047001.0,N
1501820455.6,286047001.0,N
1501820475.4,286046999.5,N
1501820495.3,286046998.3,N
1501820515.1,286046999.4,N
1501820535.8,286046999.5,N
1501820555.7,286046999.1,N
1501820575.5,286046999.4,N
1501820595.3,286046998.9,N
1501820615.2,286046999.0,N
1501820635.9,286046999.2,N
1501820655.7,286046997.0,N
1501820675.5,286046998.6,N
1501820695.4,286046998.3,N
1501820715.2,286047000.5,N
1501820735.0,286047002.6,N
1501820735.9,286047002.6,N
1501820755.8,286047002.0,N
1501820775.6,286047004.3,N
1501820795.4,286047001.6,N
1501820815.3,286047001.9,N
1501820835.1,286047002.0,N
1501820836.0,286047002.0,N
1501820855.8,286047002.7,N
1501820875.7,286047000.6,N
1501820895.5,286046999.8,N
1501820915.3,286046999.9,N
1501820935.1,286046998.5,N
1501820955.9,286046999.0,N
1501820975.7,286046996.5,N
1501820995.5,286046998.9,N
1501821015.4,286046999.0,N
1501821035.2,286047001.0,N
1501821055.0,286046998.6,N
1501821055.9,286046998.6,N
1501821075.8,286047000.7,N
1501821095.6,286046997.0,N
1501821115.4,286046997.6,N
1501821135.3,286046998.7,N
1501821155.1,286047000.4,N
1501821156.0,286047000.4,N
1501821175.8,286047000.1,N
1501821195.6,286047000.1,N
1501821215.5,286047000.1,N
1501821235.3,286046999.6,N
1501821255.1,286047001.1,N
1501821275.9,286046999.2,N
1501821295.7,286046997.6,N
1501821315.5,286046999.1,N
1501821335.4,286047001.1,N
1501821355.2,286046998.2,N
1501821375.0,286046999.8,N
1501821375.9,286046999.8,N
1501821395.8,286047001.8,N
1501821415.6,286047003.1,N
1501821435.4,286047002.1,N
1501821455.2,286047002.8,N
1501821475.1,286047002.3,N
1501821476.0,286047002.3,N
1501821495.8,286047002.7,N
1501821515.6,286047002.0,N
1501821535.5,286047002.2,N
1501821555.3,286047003.7,N
1501821575.1,286047004.0,N
1501821595.9,286047003.7,N
1501821615.7,286047003.7,N
1501821635.5,286047003.3,N
1501821655.4,286047003.7,N
1501821675.2,286047003.6,N
1501821695.0,286047003.5,N
1501821695.9,286047003.5,N
1501821715.8,286047001.5,N
1501821735.6,286047000.2,N
1501821755.4,286047000.0,N
1501821775.2,286046998.5,N
1501821795.1,286046998.7,N
1501821796.0,286046998.7,N
1501821815.8,286046999.9,N
1501821835.6,286046998.8,N
1501821855.5,286047000.8,N
1501821875.3,286046999.8,N
1501821895.1,286047002.0,N
1501821915.9,286047002.4,N
1501821935.7,286047001.9,N
1501821955.5,286047002.4,N
1501821975.4,286047002.6,N
1501821995.2,286046999.7,N
1501822015.0,286047003.9,N
1501822015.9,286047003.9,N
1501822035.7,286047003.9,N
1501822055.6,286047000.2,N
1501822075.4,286047000.1,N
1501822095.2,286046998.7,N
1501822115.1,286047002.8,N
1501822116.0,286047002.8,N
1501822135.8,286047003.8,N
1501822155.6,286047004.0,N
1501822175.5,286047003.4,N
1501822195.3,286047003.3,N
1501822215.1,286047005.8,N
1501822235.9,286047005.5,N
1501822255.7,286047003.7,N
1501822275.5,286047003.7,N
1501822295.4,286047003.6,N
1501822315.2,286047002.9,N
1501822335.0,286047004.4,N
1501822335.9,286047004.4,N
1501822355.8,286047000.2,N
1501822375.6,286047001.6,N
1501822395.4,286047004.2,N
1501822415.2,286047002.0,N
1501822435.1,286047004.1,N
1501822436.0,286047004.1,N
1501822455.8,286047003.0,N
1501822475.6,286047003.1,N
1501822495.5,286047000.1,N
1501822515.3,286047000.1,N
1501822535.1,286047004.1,N
1501822555.9,286047004.2,N
1501822575.7,286047003.0,N
1501822595.5,286047001.4,N
1501822615.4,286047003.3,N
1501822635.2,286047003.9,N
1501822655.0,286047001.8,N
1501822655.9,286047001.8,N
1501822675.8,286047000.3,N
1501822695.6,286047002.3,N
1501822715.4,286047001.9,N
1501822735.2,286047002.8,N
1501822755.1,286047003.5,N
1501822756.0,286047003.5,N
1501822775.8,286047003.8,N
1501822795.6,286047003.3,N
